When you browse on this site, cookies collect data to enhance your experience and personalize the content and advertising you see.
Visit our Privacy Policy to learn more. By continuing to use the site, you agree to this use of cookies and data.
  • Em Portugal
  • Lista de países
  • Para 7 dias
  • Temperatura da água
  • Mapa do tempo
  • Widgets de tempo
  • user-avatar
    Iniciar Sessão

    Previsão horária em Dzhilihur

    Hoje, 25 Agosto, Domingo

    Tempo Temperatura Precipitação Vento Pressão Humidade
    00:00 +16°C° 0 mm 1 m/s 625 mmHg 63%
    01:00 +16°C° 0 mm 1 m/s 625 mmHg 63%
    02:00 +16°C° 0 mm 1 m/s 625 mmHg 63%
    03:00 +15°C° 0 mm 1 m/s 625 mmHg 63%
    04:00 +16°C° 0 mm 1 m/s 625 mmHg 63%
    05:00 +16°C° 0 mm 1 m/s 625 mmHg 63%
    06:00 +15°C° 0 mm 0 m/s 626 mmHg 63%
    07:00 +20°C° 0 mm 1 m/s 626 mmHg 56%
    08:00 +22°C° 0 mm 1 m/s 627 mmHg 48%
    09:00 +24°C° 0 mm 2 m/s 628 mmHg 40%
    10:00 +24°C° 0 mm 2 m/s 628 mmHg 40%
    11:00 +25°C° 0 mm 3 m/s 628 mmHg 39%
    12:00 +26°C° 0 mm 3 m/s 628 mmHg 38%
    13:00 +25°C° 0.1 mm 3 m/s 628 mmHg 39%
    14:00 +25°C° 0.1 mm 3 m/s 628 mmHg 41%
    15:00 +25°C° 0.1 mm 3 m/s 628 mmHg 42%
    16:00 +24°C° 0.1 mm 2 m/s 627 mmHg 47%
    17:00 +21°C° 0.1 mm 2 m/s 627 mmHg 52%
    18:00 +20°C° 0.1 mm 2 m/s 626 mmHg 57%
    19:00 +20°C° 0 mm 1 m/s 626 mmHg 57%
    20:00 +19°C° 0 mm 1 m/s 626 mmHg 57%
    21:00 +18°C° 0 mm 1 m/s 626 mmHg 57%
    22:00 +16°C° 0 mm 1 m/s 626 mmHg 58%
    23:00 +16°C° 0 mm 1 m/s 626 mmHg 58%

    Amanhã, 26 Agosto, Segunda-feira

    Tempo Temperatura Precipitação Vento Pressão Humidade
    00:00 +15°C° 0 mm 1 m/s 625 mmHg 59%
    01:00 +14°C° 0 mm 0 m/s 625 mmHg 61%
    02:00 +13°C° 0 mm 0 m/s 625 mmHg 63%
    03:00 +13°C° 0 mm 0 m/s 625 mmHg 64%
    04:00 +13°C° 0 mm 0 m/s 626 mmHg 64%
    05:00 +14°C° 0 mm 0 m/s 626 mmHg 64%
    06:00 +15°C° 0 mm 0 m/s 626 mmHg 64%
    07:00 +18°C° 0 mm 1 m/s 627 mmHg 60%
    08:00 +20°C° 0 mm 1 m/s 628 mmHg 55%
    09:00 +20°C° 0 mm 2 m/s 629 mmHg 51%
    10:00 +21°C° 0.1 mm 2 m/s 629 mmHg 52%
    11:00 +21°C° 0.1 mm 2 m/s 629 mmHg 53%
    12:00 +22°C° 0.1 mm 3 m/s 629 mmHg 55%
    13:00 +21°C° 0.5 mm 3 m/s 629 mmHg 56%
    14:00 +21°C° 0.5 mm 3 m/s 628 mmHg 57%
    15:00 +21°C° 0.5 mm 2 m/s 628 mmHg 58%
    16:00 +20°C° 0.3 mm 2 m/s 628 mmHg 63%
    17:00 +19°C° 0.3 mm 2 m/s 628 mmHg 68%
    18:00 +19°C° 0.3 mm 1 m/s 627 mmHg 73%
    19:00 +18°C° 0.1 mm 1 m/s 627 mmHg 76%
    20:00 +15°C° 0.1 mm 1 m/s 627 mmHg 80%
    21:00 +13°C° 0.1 mm 0 m/s 627 mmHg 83%
    22:00 +13°C° 0.1 mm 0 m/s 627 mmHg 85%
    23:00 +14°C° 0.1 mm 1 m/s 627 mmHg 88%

    Depois de amanhã, 27 Agosto, Terça-feira

    Tempo Temperatura Precipitação Vento Pressão Humidade
    00:00 +13°C° 0.1 mm 1 m/s 627 mmHg 90%
    01:00 +13°C° 0 mm 1 m/s 627 mmHg 88%
    02:00 +13°C° 0 mm 1 m/s 627 mmHg 86%
    03:00 +13°C° 0 mm 1 m/s 627 mmHg 84%
    04:00 +13°C° 0 mm 1 m/s 627 mmHg 80%
    05:00 +14°C° 0 mm 1 m/s 627 mmHg 77%
    06:00 +14°C° 0 mm 1 m/s 627 mmHg 73%
    07:00 +16°C° 0 mm 1 m/s 627 mmHg 67%
    08:00 +18°C° 0 mm 1 m/s 628 mmHg 60%
    09:00 +19°C° 0 mm 2 m/s 628 mmHg 54%
    10:00 +20°C° 0.1 mm 2 m/s 628 mmHg 54%
    11:00 +21°C° 0.1 mm 3 m/s 628 mmHg 55%
    12:00 +22°C° 0.1 mm 3 m/s 628 mmHg 56%
    13:00 +22°C° 0.5 mm 3 m/s 628 mmHg 57%
    14:00 +22°C° 0.5 mm 3 m/s 628 mmHg 58%
    15:00 +22°C° 0.5 mm 3 m/s 627 mmHg 59%
    16:00 +20°C° 0.3 mm 2 m/s 627 mmHg 65%
    17:00 +19°C° 0.3 mm 2 m/s 626 mmHg 70%
    18:00 +18°C° 0.3 mm 2 m/s 626 mmHg 75%
    19:00 +17°C° 0 mm 2 m/s 625 mmHg 77%
    20:00 +16°C° 0 mm 1 m/s 625 mmHg 80%
    21:00 +14°C° 0 mm 1 m/s 624 mmHg 83%
    22:00 +15°C° 0 mm 1 m/s 624 mmHg 81%
    23:00 +15°C° 0 mm 1 m/s 624 mmHg 80%

    28 Agosto, Quarta-feira

    Tempo Temperatura Precipitação Vento Pressão Humidade
    00:00 +15°C° 0 mm 1 m/s 624 mmHg 79%
    01:00 +14°C° 0 mm 1 m/s 624 mmHg 79%
    02:00 +14°C° 0 mm 1 m/s 624 mmHg 78%
    03:00 +13°C° 0 mm 1 m/s 623 mmHg 78%
    04:00 +14°C° 0 mm 1 m/s 623 mmHg 77%
    05:00 +13°C° 0 mm 0 m/s 624 mmHg 76%
    06:00 +14°C° 0 mm 0 m/s 624 mmHg 75%
    07:00 +18°C° 0 mm 1 m/s 625 mmHg 68%
    08:00 +20°C° 0 mm 1 m/s 626 mmHg 62%
    09:00 +21°C° 0 mm 2 m/s 626 mmHg 56%
    10:00 +21°C° 0.4 mm 2 m/s 626 mmHg 55%
    11:00 +22°C° 0.4 mm 3 m/s 626 mmHg 55%
    12:00 +22°C° 0.4 mm 3 m/s 627 mmHg 55%
    13:00 +22°C° 0.5 mm 3 m/s 626 mmHg 55%
    14:00 +22°C° 0.5 mm 3 m/s 626 mmHg 55%
    15:00 +22°C° 0.5 mm 3 m/s 626 mmHg 55%
    16:00 +21°C° 0.1 mm 2 m/s 625 mmHg 62%
    17:00 +20°C° 0.1 mm 2 m/s 625 mmHg 68%
    18:00 +19°C° 0.1 mm 1 m/s 625 mmHg 74%
    19:00 +18°C° 0 mm 1 m/s 625 mmHg 78%
    20:00 +16°C° 0 mm 1 m/s 624 mmHg 82%
    21:00 +15°C° 0 mm 1 m/s 624 mmHg 85%
    22:00 +14°C° 0 mm 1 m/s 624 mmHg 86%
    23:00 +14°C° 0 mm 1 m/s 624 mmHg 87%

    29 Agosto, Quinta-feira

    Tempo Temperatura Precipitação Vento Pressão Humidade
    00:00 +14°C° 0 mm 1 m/s 624 mmHg 87%
    01:00 +14°C° 0 mm 1 m/s 624 mmHg 88%
    02:00 +13°C° 0 mm 1 m/s 624 mmHg 89%
    03:00 +13°C° 0 mm 2 m/s 624 mmHg 90%
    04:00 +13°C° 0 mm 2 m/s 624 mmHg 90%
    05:00 +14°C° 0 mm 1 m/s 625 mmHg 90%
    06:00 +14°C° 0 mm 1 m/s 625 mmHg 90%
    07:00 +16°C° 0 mm 2 m/s 626 mmHg 83%
    08:00 +18°C° 0 mm 2 m/s 626 mmHg 76%
    09:00 +19°C° 0 mm 3 m/s 627 mmHg 69%
    10:00 +20°C° 0.2 mm 3 m/s 627 mmHg 69%
    11:00 +20°C° 0.2 mm 3 m/s 627 mmHg 69%
    12:00 +21°C° 0.2 mm 3 m/s 627 mmHg 69%
    13:00 +21°C° 0.3 mm 3 m/s 627 mmHg 70%
    14:00 +20°C° 0.3 mm 3 m/s 627 mmHg 71%
    15:00 +20°C° 0.3 mm 3 m/s 626 mmHg 72%
    16:00 +19°C° 0.1 mm 2 m/s 626 mmHg 75%
    17:00 +19°C° 0.1 mm 2 m/s 626 mmHg 79%
    18:00 +18°C° 0.1 mm 2 m/s 625 mmHg 83%
    19:00 +17°C° 0 mm 2 m/s 626 mmHg 85%
    20:00 +16°C° 0 mm 2 m/s 626 mmHg 87%
    21:00 +16°C° 0 mm 1 m/s 626 mmHg 89%
    22:00 +15°C° 0 mm 1 m/s 626 mmHg 89%
    23:00 +14°C° 0 mm 1 m/s 625 mmHg 90%

    30 Agosto, Sexta-feira

    Tempo Temperatura Precipitação Vento Pressão Humidade
    00:00 +14°C° 0 mm 1 m/s 625 mmHg 90%
    01:00 +13°C° 0 mm 1 m/s 625 mmHg 90%
    02:00 +13°C° 0 mm 1 m/s 625 mmHg 90%
    03:00 +13°C° 0 mm 1 m/s 624 mmHg 90%
    04:00 +13°C° 0.1 mm 1 m/s 625 mmHg 91%
    05:00 +13°C° 0.1 mm 1 m/s 625 mmHg 91%
    06:00 +13°C° 0.1 mm 1 m/s 625 mmHg 92%
    07:00 +15°C° 0 mm 2 m/s 625 mmHg 88%
    08:00 +16°C° 0 mm 2 m/s 626 mmHg 85%
    09:00 +17°C° 0 mm 2 m/s 626 mmHg 81%
    10:00 +18°C° 0.1 mm 2 m/s 627 mmHg 80%
    11:00 +18°C° 0.1 mm 2 m/s 627 mmHg 78%
    12:00 +19°C° 0.1 mm 3 m/s 627 mmHg 77%
    13:00 +19°C° 0.1 mm 3 m/s 627 mmHg 77%
    14:00 +19°C° 0.1 mm 3 m/s 627 mmHg 78%
    15:00 +19°C° 0.1 mm 3 m/s 626 mmHg 78%
    16:00 +18°C° 0 mm 2 m/s 626 mmHg 83%
    17:00 +17°C° 0 mm 2 m/s 626 mmHg 87%
    18:00 +16°C° 0 mm 1 m/s 625 mmHg 91%
    19:00 +15°C° 0.3 mm 1 m/s 625 mmHg 93%
    20:00 +15°C° 0.3 mm 1 m/s 625 mmHg 94%
    21:00 +14°C° 0.3 mm 1 m/s 626 mmHg 96%
    22:00 +14°C° 0 mm 1 m/s 625 mmHg 96%
    23:00 +14°C° 0 mm 1 m/s 625 mmHg 96%
    Mostrar mais